Weather Roundup
Issued by NWS Chicago, IL

Home | Current Version | Previous Version | Graphics & Text | Print | Product List | Glossary On
Versions: 1 2 3 4 5 6 7 8 9 10 11 12 13 14 15 16 17 18 19 20 21 22 23 24 25 26 27 28 29 30 31 32 33 34 35 36 37 38 39 40 41 42 43 44 45 46 47 48 49 50
000
NZUS59 KLOT 102008
HRRLOT

CHICAGO AREA WEATHER ROUNDUP
NATIONAL WEATHER SERVICE CHICAGO/ROMEOVILLE IL
200 PM CST SUN DEC 10 2017

NOTE: "FAIR" INDICATES FEW OR NO CLOUDS BELOW 12,000 FEET WITH NO
SIGNIFICANT WEATHER AND/OR OBSTRUCTIONS TO VISIBILITY.

* THESE STATIONS ARE NOT UNDER NWS QUALITY CONTROL. THEY ALSO MAY NOT
  REPORT WEATHER SUCH AS PRECIPITATION OR FOG.

ILZ005-006-012>014-019>023-102100-
NORTHEAST ILLINOIS

CITY           SKY/WX    TMP DP  RH WIND       PRES   REMARKS
OHARE          CLOUDY    33  20  58 NW13      29.89R WCI  24
MIDWAY         PTSUNNY   35  21  56 NW14      29.90R WCI  26
AURORA         CLOUDY    34  21  59 NW13      29.91R WCI  25
LANSING*       MOSUNNY   36  24  62 W13       29.89R
WAUKEGAN       CLOUDY    29  20  69 NW9       29.89R WCI  20
DUPAGE AIRPORT CLOUDY    32  22  66 NW16      29.90R WCI  21
WHEELING       CLOUDY    32  22  66 NW12      29.92R WCI  23
KANKAKEE*      SUNNY     37  20  51 W15G21    29.90S
MORRIS*        SUNNY     37  22  54 NW15      29.90R
LEWIS AIRPORT* MOSUNNY   36  22  56 NW12G18   29.90R
NORTHERLY ISL    N/A     33  20  59 NW9         N/A  WCI  25
$$

WIZ051-052-058>065-066-070>072-102100-
SOUTHEAST WISCONSIN

CITY           SKY/WX    TMP DP  RH WIND       PRES   REMARKS
MILWAUKEE      CLOUDY    28  20  71 NW12      29.90R WCI  18
KENOSHA*       CLOUDY    29  19  66 NW13      29.90R WCI  19
RACINE*        CLOUDY    28  20  71 NW10      29.91R WCI  19
BURLINGTON     CLOUDY    37  32  84 NW12      29.91R
WAUKESHA       CLOUDY    25  18  74 NW12      29.91R WCI  14
WEST BEND      CLOUDY    27  19  74 NW9       29.90R WCI  17
$$

INZ001>003-010>013-019-020-102100-
NORTHWEST INDIANA

CITY           SKY/WX    TMP DP  RH WIND       PRES   REMARKS
GARY*          NOT AVBL
MICHIGAN CITY* NOT AVBL
RENSSELAER*    NOT AVBL
VALPARAISO     SUNNY     36  22  56 W15       29.88R
$$

LMZ740>746-102100-
SOUTHERN LAKE MICHIGAN

STATION/POSITION TIME  SKY/WX   TEMP WIND        PRES    VSBY
                                AIR  DIR/SP/G
                 (UTC)          (F)  (DEG/KT/KT) (MB)    (MI)
HARRISON CRIB    1940            32  330/ 14/ 15   N/A
BURNHAM HARBOR   2000            33  270/  8/ 13   N/A
CALUMET HARBOR   1948            34  240/  7/ 11 1011.5R
BURNS HARBOR     1940            34  290/ 12/ 16 1012.2S
MICHIGAN CITY    1940            33  260/ 18/ 20   N/A
$$

ABBREVIATIONS USED IN REMARKS
   TC - TEMPERATURE IN CELSIUS
  WCI - WIND CHILL INDEX
   HX - HEAT INDEX
  VSB - VISIBILITY
$$




USA.gov is the U.S. government's official web portal to all federal, state and local government web resources and services.